Location: Britannia Beach
(45.3521°N, 62.9901°W)
Time: 10:21:09
(UTC+00:00)

X-37B - Pass Details

Date: 04 August 2021
Orbit: 381 x 393 km, 45.0° (Epoch: 29 August)

Event Time Altitude Azimuth Distance (km) Brightness Sun altitude
Exits shadow 06:53:12 27° 138° (SE) 777 2.0 -18.3°
Drops below altitude 10° 06:55:30 10° 93° (E) 1,397 3.9 -18.0°
Sets 06:57:44 0° 81° (E) 2,253 5.2 -17.8°
